Theta_e
308 309 309 310 310 311 311 311 312 312 311 312 313 315 311 311 312 313 314 314 317 316 314 317 322 322 321 324 325 323 330 333 334 334 338 341 342 343 342 343 343 344 343 343 345
308 308 309 309 310 310 311 311 311 312 311 312 313 314 311 313 319 316 316 314 316 315 316 319 321 321 323 324 324 326 330 330 327 329 337 339 340 344 343 342 343 346 346 345 345
307 308 308 309 309 310 310 311 311 312 312 312 314 313 311 317 324 322 320 320 317 315 317 321 321 323 324 324 324 325 328 326 326 326 327 339 340 344 342 341 340 346 348 346 346
307 307 308 308 309 309 310 310 311 312 312 311 314 313 311 318 328 323 319 321 316 316 319 321 321 323 325 325 323 325 323 324 324 326 333 339 339 341 341 340 338 344 346 347 347
306 307 307 308 308 309 309 310 311 312 312 312 314 313 314 320 324 323 321 320 316 318 320 321 321 323 324 324 323 325 324 323 322 323 333 337 338 340 341 343 341 345 347 348 349
306 306 307 307 308 309 309 310 311 312 312 313 314 313 315 325 324 324 317 318 317 318 320 321 321 322 323 324 325 324 324 323 322 329 334 334 335 339 342 343 344 346 347 348 349
305 306 306 307 308 309 309 311 311 312 315 317 314 314 315 322 323 321 317 316 315 318 320 320 320 321 323 324 322 323 324 323 323 327 329 331 330 334 339 343 344 345 347 349 350
305 305 306 306 308 309 310 311 314 318 323 319 317 313 320 317 323 319 316 314 316 317 319 319 320 322 323 322 323 325 325 324 324 325 329 329 330 336 340 343 343 344 346 348 349
305 305 306 306 308 309 310 315 319 320 323 320 319 320 321 319 322 319 316 316 317 317 319 319 320 323 322 324 324 324 324 325 325 324 329 329 331 339 341 342 343 344 344 344 346
305 306 306 306 307 309 311 319 319 319 321 321 320 319 319 325 325 317 316 318 319 321 320 321 322 324 324 324 323 323 324 325 326 328 330 328 331 340 341 343 343 344 344 343 344
307 307 307 306 307 310 315 318 319 321 317 320 322 319 320 321 323 321 320 321 322 322 323 323 324 323 323 324 325 325 325 326 327 332 330 331 332 339 340 342 343 343 343 344 345
308 308 308 307 308 309 316 315 311 311 316 319 318 319 319 321 324 321 322 322 322 323 324 324 323 324 324 324 324 326 326 327 332 333 334 334 333 339 339 341 342 342 341 341 342
314 313 310 308 308 308 313 311 309 311 319 320 320 320 320 320 323 322 322 322 322 323 323 322 324 324 324 324 326 327 327 327 329 335 336 334 333 337 339 340 341 341 342 342 343
315 315 314 310 310 307 313 309 309 317 324 322 320 321 320 321 322 323 320 322 322 322 322 325 326 326 326 327 327 328 327 328 331 331 331 335 334 331 335 341 342 341 339 336 339
315 315 314 314 312 310 308 308 312 318 322 322 321 320 321 322 322 322 321 321 322 323 326 327 326 326 327 327 328 328 326 330 333 331 332 333 331 334 335 338 339 338 336 334 339
315 315 315 315 312 308 307 308 317 324 320 324 322 322 322 323 321 322 321 321 322 325 326 326 324 326 328 326 327 329 331 332 331 330 330 330 331 331 335 336 337 336 334 332 336
315 315 315 315 313 309 307 312 323 320 320 323 321 322 323 324 322 323 323 323 323 326 327 326 326 326 326 327 328 330 332 330 330 330 329 333 332 332 335 335 334 333 331 331 335
315 315 315 315 311 313 308 319 324 320 320 323 319 320 322 324 324 322 322 323 324 326 328 328 328 328 327 328 328 329 330 329 330 331 332 335 331 334 334 335 334 331 328 331 334
316 315 315 314 311 314 313 321 323 322 320 319 320 322 323 323 323 323 323 322 324 324 328 328 328 328 328 328 329 330 330 332 331 330 330 331 332 334 335 335 332 332 332 333 334
316 315 315 312 313 313 316 318 322 320 318 318 319 319 324 323 323 323 323 323 323 324 325 328 330 328 327 328 328 330 331 330 330 331 330 330 330 331 334 334 332 332 332 333 335
315 314 314 313 312 315 316 316 318 319 318 318 318 317 321 323 322 323 324 323 323 324 324 326 332 329 328 329 329 329 330 331 333 333 332 331 332 334 334 334 334 334 333 334 335
312 317 310 313 318 315 316 317 316 318 318 317 319 318 321 324 323 323 323 323 322 323 324 326 331 331 330 330 330 329 330 331 332 335 331 331 330 332 331 330 330 331 331 331 331
313 314 313 310 319 318 317 318 317 319 319 319 318 322 325 327 329 326 328 325 324 324 325 328 330 333 333 331 329 329 330 331 335 331 330 329 331 330 330 331 331 331 331 331 332
311 316 314 316 317 323 321 319 319 321 321 321 321 321 324 326 327 329 330 328 328 324 323 328 332 331 331 330 330 332 330 330 330 331 332 330 330 330 330 330 331 334 334 334 335
310 314 316 319 318 321 323 323 323 323 323 323 323 321 325 326 326 329 331 329 328 324 325 330 329 330 332 331 330 330 330 331 332 332 330 330 329 330 328 331 333 333 333 334 335
311 313 314 317 318 321 318 322 323 323 323 322 324 324 325 326 328 330 333 331 331 329 329 332 331 331 331 329 330 331 330 330 330 330 329 328 328 327 331 331 333 333 333 333 334
308 309 311 312 320 322 322 322 323 322 323 322 323 326 328 326 325 324 327 330 332 332 332 333 335 335 330 329 329 331 330 330 329 328 328 329 329 328 331 332 333 334 333 333 334
Wind_Speed
14 15 17 18 19 19 19 19 19 18 18 17 17 17 13 8 6 4 3 7 13 10 11 14 11 10 7 6 5 4 6 6 9 7 10 10 8 5 5 10 7 5 9 18 20
14 15 16 18 19 20 20 19 19 18 18 18 16 16 12 7 4 3 6 11 10 10 13 15 14 11 8 6 4 8 3 6 3 3 5 9 5 10 7 10 10 12 13 22 20
15 16 17 19 19 20 20 20 19 18 17 17 15 13 9 4 4 4 10 9 9 12 12 11 12 10 8 7 5 3 7 4 6 1 1 7 5 5 4 7 8 13 23 23 21
16 17 18 19 21 21 21 20 19 18 16 15 13 11 6 1 1 3 10 9 9 15 11 11 12 12 9 8 3 6 3 2 6 4 3 7 3 5 1 7 7 14 25 24 21
17 18 19 20 21 21 21 20 18 17 15 14 10 8 2 2 3 4 8 11 13 16 10 10 14 12 10 8 5 3 4 4 3 4 3 6 5 2 10 7 12 17 23 21 19
18 19 19 20 21 21 21 20 17 15 14 11 8 5 0 5 3 5 9 13 12 12 8 9 10 6 8 7 5 3 3 4 4 6 6 6 4 5 8 9 16 18 19 19 17
18 20 20 21 21 21 21 19 15 13 10 7 6 4 3 2 5 5 9 10 12 8 7 5 6 7 8 10 5 4 9 7 6 8 5 3 8 6 6 9 14 16 16 16 16
19 20 21 21 21 21 20 16 14 9 7 4 5 2 2 6 4 5 10 11 16 8 5 4 2 3 4 4 8 8 8 11 9 8 5 6 9 13 5 11 13 14 14 14 14
19 20 21 22 21 20 16 14 10 8 6 4 6 1 5 3 3 7 11 12 12 8 5 4 3 3 5 11 10 9 11 12 10 8 4 8 7 6 6 8 12 13 13 13 12
20 21 21 21 21 19 14 12 7 6 4 5 4 4 4 3 4 8 11 11 10 9 7 7 7 8 8 9 11 12 12 14 12 9 9 9 4 5 6 7 11 12 12 13 11
20 21 21 21 21 13 11 8 7 2 7 7 5 7 3 2 7 10 11 10 9 12 11 12 10 14 15 16 5 7 14 16 7 4 7 3 2 5 4 6 9 11 12 12 11
20 21 22 21 15 15 7 5 7 7 11 11 13 14 11 4 8 14 12 13 12 13 8 8 14 9 3 7 8 8 12 10 7 4 7 6 6 3 4 5 7 8 8 6 8
20 21 22 21 9 16 5 5 12 12 8 7 6 7 8 13 9 19 18 17 12 13 13 13 9 9 11 11 11 11 13 14 14 9 2 7 8 9 6 7 8 10 7 4 4
19 22 23 23 7 17 2 10 15 6 5 5 4 5 10 10 9 15 22 15 9 14 12 11 11 10 11 14 14 11 9 12 13 15 9 6 2 9 8 8 8 10 7 5 3
18 21 22 21 20 12 8 13 11 3 5 3 5 3 12 13 11 13 20 15 13 11 8 9 13 13 13 13 13 6 11 12 14 11 4 10 7 7 5 10 12 12 8 5 4
19 20 23 24 23 7 9 9 2 6 4 1 3 8 12 15 8 12 17 13 6 7 12 4 3 5 7 5 6 14 14 8 8 6 9 5 7 5 6 1 3 14 10 7 8
20 20 22 23 15 18 8 2 5 7 2 2 3 2 14 11 9 11 15 17 10 10 12 11 13 6 10 14 14 10 15 7 8 7 7 7 6 9 2 2 5 11 13 12 11
21 22 22 22 16 11 3 5 9 1 6 3 5 8 11 12 14 12 13 15 16 11 10 13 12 13 12 13 12 16 15 5 8 8 5 8 7 3 3 2 7 9 16 14 13
20 20 21 16 11 11 9 9 4 5 2 6 9 6 11 13 5 12 13 15 16 13 6 11 12 6 8 6 12 10 11 5 4 2 8 4 5 5 2 6 13 14 14 14 15
19 18 11 11 8 8 10 11 4 2 1 4 3 2 6 14 13 15 12 13 16 14 15 3 8 8 9 10 5 7 8 6 8 6 8 6 5 1 8 7 11 13 16 15 14
13 7 8 3 2 9 9 10 11 6 3 3 2 6 5 5 14 12 11 6 18 13 13 5 4 8 9 11 14 6 8 2 3 4 5 5 4 8 2 1 3 11 14 12 13
6 6 5 2 8 6 9 7 5 6 5 5 3 8 9 5 8 13 10 10 11 13 10 8 4 10 12 3 5 6 9 10 8 10 5 6 4 8 4 3 2 2 3 4 7
5 8 7 4 6 7 6 9 8 6 6 3 4 4 6 5 3 9 5 2 5 11 10 9 5 8 6 6 4 9 8 6 4 1 7 7 4 8 4 3 4 4 5 5 6
5 3 6 7 4 7 5 9 8 5 7 7 6 4 8 7 4 3 5 3 3 8 3 7 5 13 12 15 14 10 13 12 9 6 9 9 5 8 2 3 5 5 5 5 5
4 0 3 2 6 6 5 0 5 4 5 3 5 10 0 4 7 4 3 5 5 6 4 6 13 9 2 0 10 15 16 15 12 7 7 6 7 5 3 5 6 5 5 6 9
4 4 2 4 4 6 6 7 6 1 3 5 7 3 3 5 3 7 9 2 1 6 7 5 6 8 5 6 11 12 13 13 8 8 3 4 4 3 3 2 1 2 4 8 11
3 4 4 1 4 5 4 1 3 3 3 8 5 6 6 3 4 6 5 4 4 2 6 6 7 7 8 8 11 12 14 13 10 9 6 8 5 1 3 2 2 4 5 8 10
Wind_Direction
349 347 344 342 339 338 339 342 341 342 342 343 337 335 326 325 306 261 201 191 170 166 164 157 159 165 175 195 214 250 236 156 123 180 129 144 156 130 113 119 108 97 105 139 146
348 346 342 339 338 336 337 338 337 337 339 340 338 337 333 342 62 149 172 160 169 162 156 162 166 163 173 187 204 254 167 82 50 77 128 133 212 135 168 133 123 111 126 141 145
348 346 341 338 336 335 334 334 332 332 335 337 336 339 335 347 129 132 157 149 157 161 168 176 170 173 176 193 171 185 93 88 79 146 238 140 173 140 192 141 142 150 151 152 153
345 345 341 337 334 334 331 330 328 327 328 331 332 339 337 212 104 156 176 160 158 159 167 172 178 181 170 184 162 195 85 77 76 99 155 181 128 154 358 87 130 150 159 157 161
343 342 340 337 333 332 330 327 324 322 321 323 325 336 3 264 110 170 175 169 162 162 179 189 182 176 170 152 156 173 115 115 93 154 159 152 187 43 120 98 129 141 158 165 166
340 340 339 337 334 330 330 324 323 319 315 320 317 329 323 226 192 177 162 171 173 173 185 181 186 203 145 147 227 150 159 136 141 147 148 210 142 212 101 115 135 146 159 168 173
340 339 339 339 334 330 329 325 322 318 317 323 318 311 233 340 182 184 173 177 183 176 178 180 159 206 160 150 132 165 177 163 184 173 145 206 186 153 109 137 137 148 157 166 176
342 340 340 339 332 331 329 326 325 317 320 319 319 294 226 212 197 198 185 183 172 180 158 178 185 187 235 123 162 187 207 177 153 176 149 233 116 103 124 167 148 153 159 170 178
344 343 342 339 332 331 330 329 322 325 313 290 323 238 169 204 210 195 181 173 176 193 192 182 178 208 187 206 185 198 197 203 162 202 158 238 90 104 140 166 157 159 168 169 173
345 346 347 340 334 334 336 328 317 314 313 301 278 232 190 141 168 168 174 162 173 176 164 199 207 214 209 215 202 186 215 180 162 169 212 193 100 121 139 165 176 176 188 187 190
345 345 348 343 338 346 355 7 341 310 296 264 281 294 173 202 176 175 178 172 179 191 203 202 220 211 197 213 19 181 189 176 120 153 221 215 124 147 158 183 196 202 199 197 207
344 344 346 346 344 360 33 58 44 331 301 281 255 252 243 185 181 189 186 197 197 207 192 203 228 208 214 186 197 200 195 173 137 157 243 183 186 187 227 223 224 222 212 204 208
343 343 344 349 348 5 48 24 348 336 261 282 233 230 211 190 207 192 191 206 209 218 207 232 195 160 177 183 196 210 206 182 179 154 171 190 209 206 202 233 240 229 207 209 232
337 338 344 349 12 344 326 327 337 342 274 136 199 204 175 180 212 206 198 201 212 223 209 226 169 197 201 198 212 184 205 188 154 187 190 214 244 182 198 227 235 226 203 199 211
327 331 336 343 332 335 280 321 331 336 281 62 141 170 169 179 133 188 193 206 231 201 205 176 187 201 201 199 199 100 176 174 178 209 195 177 260 112 160 238 230 226 205 194 171
313 323 327 334 331 313 310 317 338 239 240 77 130 179 172 196 173 149 188 216 253 232 222 234 202 230 194 118 189 131 130 143 192 185 219 182 250 217 144 171 206 206 200 185 173
303 311 316 321 313 307 305 299 240 246 25 80 21 190 207 181 170 182 186 198 204 197 207 198 202 184 182 127 150 163 162 165 199 203 242 138 215 291 87 236 240 179 179 176 179
299 302 307 315 305 306 260 202 242 282 267 354 313 270 227 205 199 185 192 201 215 246 202 193 172 177 191 200 180 195 194 226 211 218 206 145 236 140 21 315 186 169 162 168 179
304 304 308 309 279 288 231 210 245 235 358 331 302 251 197 209 240 197 207 210 204 215 247 205 161 147 202 172 184 164 212 5 299 261 283 189 154 178 182 154 157 166 177 189 196
310 310 287 298 277 203 230 229 243 267 3 307 297 316 248 191 200 205 182 204 211 224 233 221 147 182 141 149 76 208 151 186 220 242 249 165 263 122 153 165 175 184 199 206 217
311 288 232 310 168 205 227 221 241 231 277 276 328 321 298 239 209 197 205 197 205 195 212 253 263 160 167 203 181 166 188 234 5 330 292 233 174 67 102 68 231 213 219 231 242
291 243 224 269 229 212 230 214 228 229 228 253 294 293 277 300 220 217 214 221 200 177 192 203 263 176 190 78 340 235 206 189 229 166 236 330 77 104 75 40 24 13 317 315 300
275 271 276 224 243 211 200 232 232 229 242 243 238 245 303 298 280 220 209 147 199 196 209 177 202 168 163 161 169 198 173 184 109 129 182 243 130 131 110 98 61 19 0 339 338
285 262 194 211 256 295 221 220 223 210 246 242 260 275 285 289 216 245 198 144 189 212 271 221 201 230 209 204 176 183 180 186 187 204 170 229 105 170 157 341 360 19 358 7 27
245 110 320 193 177 250 257 331 218 225 224 238 238 231 32 307 305 242 212 165 146 156 163 205 209 225 325 186 199 197 179 181 201 212 228 151 226 107 12 355 357 351 25 58 64
287 312 276 280 281 236 175 220 253 252 265 198 238 135 259 167 321 310 334 283 59 173 177 197 179 189 180 196 202 201 186 186 185 177 191 206 208 62 5 324 355 43 80 87 81
275 290 285 169 209 228 183 224 194 333 228 263 313 304 246 118 300 317 314 345 343 238 162 190 161 195 190 192 186 199 190 188 173 180 213 214 78 155 239 211 152 107 87 92 92